Location: Byhalia Creek
(34.8270°N, 89.8040°W)
Time: 07:53:21
(UTC+00:00)

Cosmos 1943 Rocket - Pass Details

Date: 22 April 2026
Orbit: 809 x 844 km, 71.0° (Epoch: 14 May)

Event Time Altitude Azimuth Distance (km) Brightness Sun altitude
Rises 01:19:36 0° 339° (NNW) 3,404 6.0 -9.2°
Reaches altitude 10° 01:22:04 10° 340° (NNW) 2,464 5.3 -9.7°
Maximum altitude 01:27:44 85° 69° (ENE) 845 2.2 -10.8°
Drops below altitude 10° 01:33:20 10° 158° (SSE) 2,432 4.2 -11.8°
Enters shadow 01:34:26 - 159° (SSE) 2,850 4.5 -12.0°
